Location: Parc National du Mont-Orford
(45.3122°N, 72.2403°W)
Time: 12:41:51
(UTC-04:00)

ISS - Visible Passes

Search period start: 20 July 2018 00:00
Search period end: 30 July 2018 00:00
Orbit: 402 x 408 km, 51.6° (Epoch: 20 July)

Date Brightness Start Highest point End Pass type
(mag) Time Alt. Az. Time Alt. Az. Time Alt. Az.
20 Jul -1.6 00:51:41 10° WNW 00:54:31 26° N 00:57:22 10° NE visible
20 Jul -2.2 02:28:31 10° NW 02:31:35 36° NNE 02:34:40 10° E visible
20 Jul -3.7 04:04:58 10° WNW 04:08:13 53° SW 04:11:25 10° SE visible
20 Jul -3.9 22:22:09 10° WSW 22:25:25 87° NNW 22:28:43 10° ENE visible
20 Jul -1.7 23:59:18 10° WNW 00:02:13 29° N 00:05:10 10° NE visible
21 Jul -1.8 01:36:23 10° NW 01:39:19 29° N 01:42:16 10° ENE visible
21 Jul -3.9 03:12:49 10° WNW 03:16:07 89° NNE 03:19:24 10° ESE visible
21 Jul -3.8 21:30:08 10° SW 21:33:19 54° SE 21:36:33 10° ENE visible
21 Jul -2.1 23:06:53 10° W 23:09:56 35° NNW 23:13:00 10° NE visible
22 Jul -1.6 00:44:10 10° NW 00:47:01 26° N 00:49:52 10° ENE visible
22 Jul -3.2 02:20:42 10° NW 02:23:57 56° NNE 02:27:12 10° ESE visible
22 Jul -2.8 03:57:30 10° W 04:00:15 25° SW 04:03:00 10° SSE visible
22 Jul -2.8 22:14:30 10° W 22:17:41 48° NNW 22:20:53 10° NE visible
22 Jul -1.5 23:51:50 10° WNW 23:54:40 26° N 23:57:30 10° ENE visible
23 Jul -2.1 01:28:35 10° NW 01:30:51 32° NNW 01:30:51 32° NNW visible
23 Jul -3.6 21:22:12 10° WSW 21:25:28 73° NNW 21:28:45 10° ENE visible
23 Jul -1.7 22:59:27 10° WNW 23:02:20 28° N 23:05:13 10° NE visible
24 Jul -2.0 00:36:26 10° NW 00:39:26 31° NNE 00:39:27 31° NNE visible
24 Jul -2.0 22:06:59 10° W 22:10:00 32° NNW 22:13:01 10° NE visible
24 Jul -1.7 23:44:13 10° NW 23:47:05 27° N 23:48:30 20° NE visible
25 Jul -1.0 01:20:41 10° WNW 01:21:07 13° WNW 01:21:07 13° WNW visible
25 Jul -2.5 21:14:33 10° W 21:17:41 42° NNW 21:20:51 10° NE visible
25 Jul -1.6 22:51:53 10° WNW 22:54:43 26° N 22:57:32 10° ENE visible
26 Jul -1.8 00:28:32 10° NW 00:30:21 27° NW 00:30:21 27° NW visible
26 Jul -1.7 21:59:28 10° WNW 22:02:20 27° N 22:05:11 10° NE visible
26 Jul -2.3 23:36:22 10° NW 23:39:24 33° NNE 23:39:39 33° NNE visible
27 Jul -1.9 21:06:59 10° WNW 21:09:56 30° NNW 21:12:54 10° NE visible
27 Jul -1.9 22:44:08 10° NW 22:47:02 28° N 22:49:00 16° ENE visible
28 Jul -1.4 00:20:34 10° WNW 00:21:38 19° WNW 00:21:38 19° WNW visible
28 Jul -1.7 21:51:49 10° WNW 21:54:38 26° N 21:57:28 10° ENE visible
28 Jul -2.7 23:28:23 10° NW 23:31:01 44° NNW 23:31:01 44° NNW visible
29 Jul -1.7 20:59:23 10° WNW 21:02:12 26° N 21:05:02 10° NE visible
29 Jul -2.5 22:36:10 10° NW 22:39:15 36° NNE 22:40:26 27° ENE visible
